EXS51FG EGNM-LGKO

Flight info

Callsign EXS51FG
Flight time N/A
Altitude 37000
Route LAMIX L603 DOLAS DCT NAVPI DCT NOLRU DCT DOJOH DCT DODEN DCT NEGIX DCT DINKU DCT BESNI DCT LATLO DCT OBEDI DCT MAGAM DCT AGLIB DCT VABEK UL603 OLOTA DCT RUGAS UN128 FSK DCT GIKAS DCT MES UN139 LURUS L995 KOPAR
Aircraft B738/M-SDE2E3FGHIRWXY/LB1

Departure

Time N/A
Airport Leeds Bradford Airport (EGNM)

Arrival

Time 2026-05-08 13:43
Airport Kos International Airport "Ippokratis" (LGKO)
Time Latitude Longitude Altitude Speed Heading
2026-05-08 13:19 37.83224 26.09611 25702 ft 365 kts 169°
2026-05-08 13:20 37.80833 26.10688 25368 ft 364 kts 169°
2026-05-08 13:20 37.78449 26.11760 25000 ft 364 kts 169°
2026-05-08 13:20 37.76064 26.12831 24665 ft 364 kts 169°
2026-05-08 13:20 37.74450 26.13556 24418 ft 364 kts 168°
2026-05-08 13:21 37.72043 26.14637 23917 ft 370 kts 168°
2026-05-08 13:21 37.69617 26.15730 23526 ft 371 kts 168°
2026-05-08 13:21 37.67221 26.16812 23137 ft 370 kts 168°
2026-05-08 13:21 37.64803 26.17905 22785 ft 368 kts 168°
2026-05-08 13:22 37.62396 26.18992 22440 ft 367 kts 168°
2026-05-08 13:22 37.59999 26.20073 22119 ft 365 kts 168°
2026-05-08 13:22 37.57604 26.21150 21777 ft 365 kts 168°
2026-05-08 13:22 37.55213 26.22225 21425 ft 364 kts 167°
2026-05-08 13:23 37.52831 26.23296 21095 ft 363 kts 167°
2026-05-08 13:23 37.50459 26.24362 20762 ft 361 kts 167°
2026-05-08 13:23 37.48102 26.25421 20435 ft 359 kts 167°
2026-05-08 13:23 37.45753 26.26474 20101 ft 357 kts 167°
2026-05-08 13:24 37.43415 26.27522 19775 ft 356 kts 167°
2026-05-08 13:24 37.41087 26.28564 19437 ft 355 kts 167°
2026-05-08 13:24 37.38767 26.29603 19107 ft 353 kts 167°
2026-05-08 13:24 37.36452 26.30638 18766 ft 353 kts 167°
2026-05-08 13:25 37.34145 26.31669 18443 ft 352 kts 166°
2026-05-08 13:25 37.31838 26.32699 18064 ft 351 kts 166°
2026-05-08 13:25 37.29548 26.33722 17716 ft 349 kts 166°
2026-05-08 13:25 37.27267 26.34740 17388 ft 347 kts 166°
2026-05-08 13:26 37.24998 26.35752 17063 ft 345 kts 166°
2026-05-08 13:26 37.22742 26.36757 16732 ft 343 kts 166°
2026-05-08 13:26 37.20501 26.37755 16418 ft 341 kts 166°
2026-05-08 13:26 37.18292 26.38737 16255 ft 333 kts 166°
2026-05-08 13:27 37.16111 26.39703 15931 ft 331 kts 166°
2026-05-08 13:27 37.13944 26.40661 15647 ft 329 kts 166°
2026-05-08 13:27 37.11786 26.41614 15343 ft 328 kts 166°
2026-05-08 13:27 37.09636 26.42563 15046 ft 327 kts 166°
2026-05-08 13:28 37.07494 26.43508 14739 ft 326 kts 166°
2026-05-08 13:28 37.05360 26.44450 14428 ft 325 kts 165°
2026-05-08 13:28 37.03224 26.45392 14113 ft 325 kts 165°
2026-05-08 13:28 37.01092 26.46332 13772 ft 325 kts 165°
2026-05-08 13:29 36.98965 26.47270 13448 ft 324 kts 165°
2026-05-08 13:29 36.96845 26.48205 13111 ft 323 kts 165°
2026-05-08 13:29 36.94732 26.49135 12802 ft 321 kts 165°
2026-05-08 13:29 36.92633 26.50058 12471 ft 319 kts 165°
2026-05-08 13:30 36.90552 26.51012 12149 ft 320 kts 159°
2026-05-08 13:30 36.88761 26.52673 11837 ft 325 kts 132°
2026-05-08 13:30 36.87623 26.55097 11604 ft 324 kts 114°
2026-05-08 13:30 36.86765 26.57690 11309 ft 323 kts 113°
2026-05-08 13:31 36.85927 26.60276 11011 ft 321 kts 114°
2026-05-08 13:31 36.85082 26.62811 10723 ft 319 kts 115°
2026-05-08 13:31 36.84205 26.65391 10415 ft 318 kts 115°
2026-05-08 13:31 36.83352 26.67874 10233 ft 312 kts 116°
2026-05-08 13:32 36.82244 26.70141 10039 ft 303 kts 134°
2026-05-08 13:32 36.80832 26.72073 9756 ft 300 kts 137°
2026-05-08 13:32 36.79409 26.73967 9458 ft 298 kts 136°
2026-05-08 13:32 36.78000 26.75855 9164 ft 297 kts 136°
2026-05-08 13:33 36.76605 26.77743 8889 ft 295 kts 136°
2026-05-08 13:33 36.75225 26.79626 8610 ft 293 kts 135°
2026-05-08 13:33 36.73857 26.81502 8334 ft 292 kts 135°
2026-05-08 13:33 36.72496 26.83372 8055 ft 290 kts 135°
2026-05-08 13:34 36.71141 26.85233 7732 ft 290 kts 135°
2026-05-08 13:34 36.69778 26.87108 7349 ft 293 kts 134°
2026-05-08 13:34 36.68667 26.89203 7053 ft 288 kts 117°
2026-05-08 13:34 36.67835 26.91433 6789 ft 280 kts 116°
2026-05-08 13:35 36.67012 26.93598 6519 ft 273 kts 117°
2026-05-08 13:35 36.66189 26.95700 6245 ft 269 kts 118°
2026-05-08 13:35 36.65362 26.97783 5982 ft 268 kts 118°
2026-05-08 13:35 36.64537 26.99851 5713 ft 266 kts 118°
2026-05-08 13:36 36.63716 27.01899 5558 ft 261 kts 118°
2026-05-08 13:36 36.62918 27.03886 5439 ft 254 kts 118°
2026-05-08 13:36 36.62140 27.05823 5330 ft 247 kts 118°
2026-05-08 13:36 36.61385 27.07699 5245 ft 237 kts 118°
2026-05-08 13:37 36.60667 27.09483 5147 ft 224 kts 118°
2026-05-08 13:37 36.59986 27.11173 4965 ft 215 kts 118°
2026-05-08 13:37 36.59455 27.12861 4727 ft 208 kts 97°
2026-05-08 13:37 36.59731 27.14582 4544 ft 201 kts 69°
2026-05-08 13:38 36.60246 27.16204 4336 ft 201 kts 70°
2026-05-08 13:38 36.60744 27.17818 4146 ft 198 kts 69°
2026-05-08 13:38 36.61235 27.19406 3911 ft 195 kts 69°
2026-05-08 13:38 36.61910 27.20839 3686 ft 193 kts 38°
2026-05-08 13:39 36.63140 27.21291 3543 ft 188 kts 348°
2026-05-08 13:39 36.64334 27.20661 3521 ft 185 kts 333°
2026-05-08 13:39 36.65447 27.19931 3321 ft 181 kts 330°
2026-05-08 13:39 36.66521 27.19152 3086 ft 177 kts 328°
2026-05-08 13:40 36.67573 27.18354 2915 ft 173 kts 328°
2026-05-08 13:40 36.68587 27.17572 2698 ft 171 kts 327°
2026-05-08 13:40 36.69592 27.16792 2465 ft 170 kts 326°
2026-05-08 13:40 36.70595 27.16010 2282 ft 170 kts 327°
2026-05-08 13:41 36.71578 27.15246 2057 ft 164 kts 327°
2026-05-08 13:41 36.72507 27.14524 1845 ft 149 kts 326°
2026-05-08 13:41 36.73383 27.13840 1632 ft 149 kts 327°
2026-05-08 13:41 36.74270 27.13151 1424 ft 151 kts 327°
2026-05-08 13:42 36.75163 27.12456 1211 ft 151 kts 327°
2026-05-08 13:42 36.76045 27.11768 1036 ft 149 kts 327°
2026-05-08 13:42 36.76930 27.11074 858 ft 152 kts 327°
2026-05-08 13:42 36.77815 27.10383 603 ft 145 kts 328°
2026-05-08 13:43 36.78645 27.09743 411 ft 136 kts 327°
2026-05-08 13:43 36.79362 27.09188 413 ft 97 kts 328°
2026-05-08 13:43 36.79769 27.08871 411 ft 53 kts 327°
2026-05-08 13:43 36.80064 27.08641 411 ft 47 kts 328°
2026-05-08 13:44 36.80284 27.08470 418 ft 15 kts 328°
2026-05-08 13:44 36.80358 27.08504 420 ft 15 kts 98°
2026-05-08 13:44 36.80337 27.08609 420 ft 10 kts 103°
2026-05-08 13:44 36.80309 27.08688 416 ft 10 kts 131°
2026-05-08 13:45 36.80252 27.08736 416 ft 10 kts 151°
2026-05-08 13:45 36.80197 27.08778 416 ft 4 kts 148°
2026-05-08 13:45 36.80164 27.08804 414 ft 7 kts 148°
2026-05-08 13:45 36.80125 27.08835 413 ft 7 kts 148°
2026-05-08 13:46 36.80114 27.08863 416 ft 4 kts 68°
2026-05-08 13:46 36.80129 27.08894 410 ft 5 kts 58°
2026-05-08 13:46 36.80140 27.08915 414 ft 1 kts 58°
2026-05-08 13:46 36.80143 27.08921 415 ft 0 kts 58°